Regional Weather Roundup
Issued by NWS Boston, MA

Home | Current Version | Previous Version | Text Only | Print | Product List | Glossary On
Versions: 1 2 3 4 5 6 7 8 9 10 11 12 13 14 15 16 17 18 19 20 21 22 23 24 25 26 27 28 29 30 31 32 33 34 35 36 37 38 39 40 41 42 43 44 45 46 47 48 49 50
000
ASUS41 KBOX 302210
RWRBOX

REGIONAL WEATHER ROUNDUP
NATIONAL WEATHER SERVICE TAUNTON MA
600 PM EDT SAT JUL 30 2016

NOTE:  "FAIR" INDICATES FEW OR NO CLOUDS BELOW 12,000 FEET WITH NO
SIGNIFICANT WEATHER AND/OR OBSTRUCTIONS TO VISIBILITY.

MAZALL-302300-
EASTERN MASSACHUSETTS

CITY           SKY/WX    TMP DP  RH WIND       PRES   REMARKS
BOSTON         PTSUNNY   73  65  75 E12       30.01R
BEVERLY        MOSUNNY   75  57  53 SE6       30.01R
LAWRENCE       MOSUNNY   82  58  43 E6        30.02R
BEDFORD        PTSUNNY   81  56  42 E10       29.99R
BLUE HILL        N/A     79  61  53 E5        30.01R
NORWOOD        CLOUDY    83  66  56 NE3       29.98R
MARSHFIELD     SUNNY     77  66  69 SE7       30.01R
PLYMOUTH       CLOUDY    80  65  59 SE6       30.01R
TAUNTON        PTSUNNY   82  67  60 VRB7      29.99R
NEW BEDFORD    SUNNY     79  69  71 S9        30.00R
$$

MAZALL-302300-
CAPE COD AND THE ISLANDS

CITY           SKY/WX    TMP DP  RH WIND       PRES   REMARKS
FALMOUTH       NOT AVBL
HYANNIS        MOSUNNY   75  69  81 S8        30.01S
CHATHAM        SUNNY     75  68  78 S5        30.03S
PROVINCETOWN   SUNNY     78  66  66 SE6       30.02S
NANTUCKET      PTSUNNY   70  67  90 S5        30.03R FOG
MARTHAS VNYRD  MOSUNNY   72  69  90 S8        30.02S
$$

MAZALL-302300-
CENTRAL AND WESTERN MASSACHUSETTS

CITY           SKY/WX    TMP DP  RH WIND       PRES   REMARKS
WORCESTER      MOSUNNY   81  58  45 CALM      30.03S
FITCHBURG      CLOUDY    85  58  39 E5        30.01R
ORANGE         PTSUNNY   83  57  41 NE5       30.01S
SPRINGFIELD    PTSUNNY   85  61  44 NW3       29.98R
WESTFIELD      CLOUDY    84  60  44 CALM      29.99R
NORTH ADAMS    CLOUDY    77  60  55 CALM      30.03R
PITTSFIELD     CLOUDY    76  62  62 CALM      30.04R
$$

RIZALL-302300-
RHODE ISLAND

CITY           SKY/WX    TMP DP  RH WIND       PRES   REMARKS
PROVIDENCE     PTSUNNY   80  69  69 S12       30.01R
NEWPORT        SUNNY     75  69  81 S9        30.02R
BLOCK ISLAND   MOSUNNY   76  70  82 S9        30.03R
SMITHFIELD     MOSUNNY   81  64  57 S6        30.01R
WESTERLY       MOSUNNY   77  68  73 S9        30.03R
$$

CTZALL-302300-
CONNECTICUT

CITY           SKY/WX    TMP DP  RH WIND       PRES   REMARKS
BRADLEY INTL   PTSUNNY   81  67  62 S13       30.00R
HARTFORD       PTSUNNY   78  67  68 S12       30.00R
BRIDGEPORT     LGT RAIN  79  74  84 SW8       30.02R
DANBURY        LGT RAIN  75  71  87 SW5       30.04R FOG
GROTON         CLOUDY    76  71  85 S6        30.02R
NEW HAVEN      CLOUDY    79  72  79 S7        30.02R
CHESTER        FAIR      77  72  83 VRB7      30.04R
MERIDEN        CLOUDY    76  67  73 NW3       30.03R
WILLIMANTIC    CLOUDY    81  69  67 S7        30.02R
OXFORD         PTSUNNY   75  68  78 S6        30.07R
$$

MEZ002-015-021-024-NHZ003-005-008-011-012-014-VTZ005-008-302300-
NORTHERN NEW ENGLAND

CITY           SKY/WX    TMP DP  RH WIND       PRES   REMARKS
PORTLAND ME    MOSUNNY   78  54  43 S6        30.00S
BANGOR ME      PTSUNNY   84  50  30 NW6       29.99S
CONCORD NH     SUNNY     85  51  31 W5        30.01R
MANCHESTER NH  MOSUNNY   85  53  33 NW8       29.99R
NASHUA NH      MOSUNNY   85  57  38 VRB5      30.00R
PORTSMOUTH NH  PTSUNNY   73  56  55 SE10      30.00R
JAFFREY NH     SUNNY     81  53  37 VRB3      30.05R
KEENE NH       MOSUNNY   82  59  45 CALM      30.02R
BURLINGTON VT  PTSUNNY   78  54  43 N9        30.04F
MT. WASHINGTON PTSUNNY   52  46  82 W10         N/A
$$

NYZ052-076-302300-
EASTERN NEW YORK

CITY           SKY/WX    TMP DP  RH WIND       PRES   REMARKS
ALBANY         CLOUDY    77  62  59 CALM      30.02S
NEW YORK CITY  LGT RAIN  78  73  84 S13       30.01S
$$

ANZALL-302300-
MARINE OBSERVATIONS

STATION/POSITION TIME  TEMP    WIND        PRES    VSBY  WAVE
                       AIR SEA DIR/SP/G                  HT/PER
                 (UTC) (F)     (DEG/KT/KT) (MB)    (MI)  (FT/S)
BOSTON BUOY      2150   72 73  100/  8/ 10 1015.7F         2/ 8
BUZZARDS BAY     2100   72     170/ 10/ 10 1016.5F
NANTUCKET SOUND  2150   72 76  210/  6/  8 1016.3R         1
MASS BAY-STELLWA 2104   72 72  110/  8/ 10 1016.0F  1 7/8  1/ 7
ISLE OF SHOALS   2100   71     130/ 10/ 10 1015.9F
S OF BLOCK IS    NOT AVBL
$$

......................KEY.........................
  SKY/WX - SKY CONDITION/PRESENT WEATHER
  TMP    - TEMPERATURE IN FAHRENHEIT
  DWPT   - DEWPOINT IN FAHRENHEIT
  RH     - RELATIVE HUMIDITY IN PERCENT
  WIND   - DIRECTION AND SPEED IN MPH
  PRES   - MEAN SEA LEVEL PRESSURE IN INCHES OF HG
  WCI    - WIND CHILL INDEX
  VSB    - VISIBILITY IN MILES
  HX     - HEAT INDEX
  TC     - TEMPERATURE IN CELSIUS
  VRB    - VARIABLE WIND DIRECTION
  N/A    - NOT AVAILABLE



USA.gov is the U.S. government's official web portal to all federal, state and local government web resources and services.